EST,Max TemperatureF,Mean TemperatureF,Min TemperatureF,Max Dew PointF,MeanDew PointF,Min DewpointF,Max Humidity, Mean Humidity, Min Humidity, Max Sea Level PressureIn, Mean Sea Level PressureIn, Min Sea Level PressureIn, Max VisibilityMiles, Mean VisibilityMiles, Min VisibilityMiles, Max Wind SpeedMPH, Mean Wind SpeedMPH, Max Gust SpeedMPH,PrecipitationIn, CloudCover, Events, WindDirDegrees
2011-12-1,68,55,42,50,44,37,89,72,49,30.30,30.21,30.12,10,10,10,13,8,20,0.00,0,,11
2011-12-2,73,60,48,53,51,46,90,74,49,30.38,30.34,30.28,10,10,10,12,9,,0.00,1,,19
2011-12-3,75,65,55,56,53,50,90,70,40,30.39,30.35,30.31,10,10,10,13,8,26,0.00,2,,42
2011-12-4,79,67,55,59,55,51,90,71,38,30.30,30.24,30.19,10,10,10,12,6,17,0.00,3,,66
2011-12-5,79,68,57,62,58,55,96,74,47,30.19,30.15,30.10,10,10,7,12,3,,0.00,1,,120
2011-12-6,79,68,57,63,59,55,100,85,45,30.17,30.11,30.06,10,6,0,8,2,,0.00,2,Fog,142
2011-12-7,80,65,48,64,55,37,93,77,47,30.16,30.04,29.94,10,9,2,22,7,32,0.02,3,Rain,264
2011-12-8,64,52,39,49,41,33,81,66,48,30.26,30.20,30.15,10,10,10,15,11,20,0.00,4,,14
2011-12-9,78,66,55,60,56,49,84,71,48,30.19,30.15,30.11,10,10,10,8,5,,0.00,7,,46
2011-12-10,73,66,60,61,59,54,94,81,62,30.25,30.18,30.13,10,9,7,17,6,24,0.00,7,,17
2011-12-11,75,68,60,63,60,55,94,82,64,30.25,30.21,30.19,10,9,2,18,12,24,0.00,7,Rain,26
2011-12-12,71,67,63,65,63,60,100,88,78,30.27,30.23,30.18,10,9,2,18,9,23,0.04,7,Rain,38
2011-12-13,73,66,60,61,60,59,94,82,65,30.35,30.30,30.26,10,8,2,17,11,24,0.00,7,,28
2011-12-14,75,68,60,60,57,51,96,78,43,30.34,30.29,30.23,10,8,2,13,8,,0.00,4,,43
2011-12-15,75,65,55,59,56,54,94,74,50,30.28,30.23,30.17,10,9,2,10,3,,0.00,4,,101
2011-12-16,75,67,59,62,60,57,93,77,55,30.23,30.20,30.17,10,10,8,7,1,,0.00,5,,110
2011-12-17,78,69,60,61,59,56,100,81,46,30.24,30.18,30.12,10,5,0,10,1,,0.01,2,Fog,311
2011-12-18,66,56,46,51,37,28,83,52,23,30.32,30.27,30.22,10,10,10,13,9,,0.00,1,,21
2011-12-19,73,62,50,55,52,47,93,69,45,30.30,30.25,30.21,10,10,5,14,7,22,0.00,1,,107
2011-12-20,77,66,54,62,56,52,93,71,45,30.24,30.18,30.12,10,10,10,13,5,16,0.00,2,,130
2011-12-21,78,68,57,60,58,55,100,77,45,30.19,30.14,30.08,10,9,2,18,4,28,0.00,0,,171
2011-12-22,81,68,55,61,58,54,100,77,45,30.18,30.12,30.05,10,9,1,13,4,23,0.00,1,,170
2011-12-23,82,72,62,65,62,59,93,75,45,30.20,30.15,30.10,10,10,9,9,5,,0.00,2,,204
2011-12-24,79,72,63,64,61,55,100,79,48,30.31,30.24,30.19,10,8,1,12,4,16,0.00,2,,41
2011-12-25,80,71,62,66,62,59,93,78,48,30.29,30.24,30.19,10,9,5,7,3,,0.01,4,,39
2011-12-26,71,66,62,66,60,54,97,83,61,30.26,30.20,30.12,10,7,1,10,6,,0.00,7,,54
2011-12-27,73,65,55,65,60,48,94,81,59,30.09,30.01,29.91,10,10,2,22,9,26,0.11,6,Rain,231
2011-12-28,63,54,45,46,39,28,82,62,28,30.21,30.15,30.09,10,10,10,16,9,24,0.00,1,,311
2011-12-29,66,56,45,43,39,30,86,64,25,30.21,30.14,30.08,10,10,10,6,3,,0.00,0,,360
2011-12-30,72,59,46,55,48,44,93,70,37,30.19,30.13,30.09,10,9,2,8,2,,0.00,4,,150
2011-12-31,77,66,54,60,55,50,94,75,39,30.24,30.19,30.12,10,8,0,7,3,,0.00,2,Fog,270